IW4EGP Rimini IT current weather conditions

sailwx.info

Wind from 087 at 4 knots gusting 7

Air temperature 28.3° C
Dewpoint 23.5° C

Last reported at 2019-Sep-16 21:59 UTC.
Time now 2019-Sep-16 22:41 UTC

Location: N 44°03' E 012°31'.
View on Google Maps.

See reports from other nearby stations

  
Tides and Currents Weather Stations Pressure Air Temp Water Temp Dewpoint Dewpoint Depression Visibility Wind Speed Wind Dir Waves Ship Positions
date/time (UTC)wind fromknots sea level pressurealtimeterstation pressurevisibilityair tempwater tempwave heightnotes
2019-Sep-16 21:59 087 4 gusting 7 28.3
2019-Sep-16 21:44 087 4 gusting 7 28.3
2019-Sep-16 21:30 087 4 gusting 7 28.3
2019-Sep-16 21:14 087 4 gusting 7 28.3
2019-Sep-16 20:59 087 4 gusting 7 28.3
2019-Sep-16 20:44 087 4 gusting 7 28.3
2019-Sep-16 20:29 087 4 gusting 7 28.3
2019-Sep-16 20:01 087 4 gusting 7 28.3
2019-Sep-16 19:46 087 4 gusting 7 28.3
2019-Sep-16 19:29 087 4 gusting 7 28.3
2019-Sep-16 19:14 087 4 gusting 7 28.3
2019-Sep-16 19:00 087 4 gusting 7 28.3
2019-Sep-16 18:44 087 4 gusting 7 28.3
2019-Sep-16 18:29 087 4 gusting 7 28.3
2019-Sep-16 18:14 087 4 gusting 7 28.3
2019-Sep-16 17:59 087 4 gusting 7 28.3
2019-Sep-16 17:44 087 4 gusting 7 28.3
2019-Sep-16 17:29 087 4 gusting 7 28.3
2019-Sep-16 17:14 087 4 gusting 7 28.3
2019-Sep-16 17:00 087 4 gusting 7 28.3
2019-Sep-16 16:44 087 4 gusting 7 28.3
2019-Sep-16 15:59 087 4 gusting 7 28.3
2019-Sep-16 15:44 087 4 gusting 7 28.3
2019-Sep-16 15:29 087 4 gusting 7 28.3
2019-Sep-16 15:14 087 4 gusting 7 28.3
2019-Sep-16 15:00 087 4 gusting 7 28.3
2019-Sep-16 14:44 087 4 gusting 7 28.3
2019-Sep-16 14:29 087 4 gusting 7 28.3
2019-Sep-16 14:14 088 3 gusting 7 28.3
2019-Sep-16 14:00 088 3 gusting 7 28.3
2019-Sep-16 13:29 069 4 gusting 9 28.9
2019-Sep-16 13:14 084 3 gusting 7 28.9
2019-Sep-16 13:00 080 4 gusting 7 28.3
2019-Sep-16 12:59 080 4 gusting 7 28.3
2019-Sep-16 12:45 076 4 gusting 7 28.9
2019-Sep-16 12:30 076 4 gusting 7 29.4
2019-Sep-16 12:14 079 3 gusting 7 29.4
2019-Sep-16 11:59 065 4 gusting 7 29.4
2019-Sep-16 11:44 078 3 gusting 8 29.4
2019-Sep-16 11:30 075 3 gusting 6 29.4
2019-Sep-16 11:29 075 3 gusting 6 29.4
2019-Sep-16 11:14 071 4 gusting 7 28.9
2019-Sep-16 10:59 082 2 gusting 6 29.4
2019-Sep-16 10:44 081 2 gusting 7 29.4
2019-Sep-16 10:30 072 2 gusting 7 28.9
2019-Sep-16 10:14 063 3 gusting 10 28.3
2019-Sep-16 10:00 073 2 gusting 6 28.9
2019-Sep-16 09:46 058 2 gusting 5 28.9
2019-Sep-16 09:44 058 2 gusting 5 28.9
2019-Sep-16 09:29 077 1 gusting 5 28.9
2019-Sep-16 08:59 070 1 gusting 4 28.9
2019-Sep-16 08:45 085 0 gusting 3 28.9
2019-Sep-16 08:44 085 0 gusting 3 28.9
2019-Sep-16 08:30 093 1 gusting 3 28.3
2019-Sep-16 08:14 092 0 gusting 3 28.3
2019-Sep-16 08:00 099 0 gusting 3 27.8
2019-Sep-16 07:45 094 0 gusting 2 27.2
2019-Sep-16 07:44 094 0 gusting 2 27.2
2019-Sep-16 07:29 090 0 gusting 2 27.8
2019-Sep-16 07:15 096 28.3
2019-Sep-16 07:00 26.7
2019-Sep-16 06:59 26.7
2019-Sep-16 06:45 26.7
2019-Sep-16 06:29 26.7
2019-Sep-16 06:15 25.6
2019-Sep-16 05:59 23.3
2019-Sep-16 05:44 22.2
2019-Sep-16 05:29 20.6
2019-Sep-16 05:14 20.0
2019-Sep-16 04:59 19.4
2019-Sep-16 04:44 155 19.4
2019-Sep-16 04:31 18.9
2019-Sep-16 04:29 18.9
2019-Sep-16 04:15 19.4
2019-Sep-16 03:59 19.4
2019-Sep-16 03:44 19.4
2019-Sep-16 03:14 20.0
2019-Sep-16 02:59 20.0
2019-Sep-16 02:44 148 20.6
2019-Sep-16 02:29 20.6
2019-Sep-16 02:14 195 0 gusting 4 21.1
2019-Sep-16 01:59 163 0 gusting 3 21.1
2019-Sep-16 01:45 155 21.1
2019-Sep-16 01:29 219 2 gusting 5 21.7
2019-Sep-16 01:14 203 1 gusting 4 20.6
2019-Sep-16 00:59 150 20.6
2019-Sep-16 00:44 166 20.0
2019-Sep-15 23:59 151 20.6
2019-Sep-15 23:44 21.1
2019-Sep-15 23:29 162 21.1
2019-Sep-15 23:14 167 21.1
2019-Sep-15 22:59 155 21.1
2019-Sep-15 22:44 148 21.1
2019-Sep-15 22:29 146 21.7
2019-Sep-15 22:14 158 21.7
2019-Sep-15 21:59 21.7
2019-Sep-15 21:44 136 22.2
2019-Sep-15 21:29 185 0 gusting 5 22.2
2019-Sep-15 21:14 171 22.2
2019-Sep-15 20:59 182 0 gusting 4 22.2
2019-Sep-15 20:29 139 22.2
2019-Sep-15 20:14 22.2
2019-Sep-15 19:59 22.2
2019-Sep-15 19:44 22.2
2019-Sep-15 19:29 135 22.8
2019-Sep-15 19:14 135 22.8
2019-Sep-15 18:59 135 22.8
2019-Sep-15 18:44 137 0 gusting 2 23.3
2019-Sep-15 18:29 135 0 gusting 2 23.3
2019-Sep-15 18:14 135 0 gusting 2 23.3
2019-Sep-15 17:59 135 23.3
2019-Sep-15 17:44 130 0 gusting 1 23.9
2019-Sep-15 17:29 107 0 gusting 2 23.9
2019-Sep-15 17:14 090 1 gusting 2 24.4
2019-Sep-15 16:59 090 0 gusting 2 25.0
2019-Sep-15 16:44 093 0 gusting 2 25.6
2019-Sep-15 16:29 090 0 gusting 3 26.1
2019-Sep-15 16:17 090 1 gusting 4 26.7
2019-Sep-15 16:14 090 1 gusting 4 26.7
2019-Sep-15 15:59 090 2 gusting 5 27.8
2019-Sep-15 15:44 091 2 gusting 5 28.3
2019-Sep-15 15:29 088 2 gusting 6 27.8
2019-Sep-15 14:59 068 1 gusting 5 28.9
2019-Sep-15 14:44 076 2 gusting 8 29.4
2019-Sep-15 14:14 086 1 gusting 5 30.0
2019-Sep-15 13:59 077 2 gusting 7 30.0
2019-Sep-15 13:44 055 4 gusting 8 29.4
2019-Sep-15 13:29 063 3 gusting 7 30.6
2019-Sep-15 13:14 060 3 gusting 7 30.6
2019-Sep-15 12:59 079 3 gusting 9 30.0
2019-Sep-15 12:44 075 3 gusting 8 30.0
2019-Sep-15 12:14 068 2 gusting 6 30.6
2019-Sep-15 11:59 089 2 gusting 6 30.0
2019-Sep-15 11:44 069 3 gusting 7 30.0
2019-Sep-15 11:14 046 0 gusting 3 30.6
2019-Sep-15 10:59 070 1 gusting 7 31.1
2019-Sep-15 10:44 105 0 gusting 4 30.6
2019-Sep-15 10:14 294 1 gusting 5 28.3
2019-Sep-15 09:59 353 0 gusting 5 28.3
2019-Sep-15 09:44 301 0 gusting 5 27.8
2019-Sep-15 09:29 267 0 gusting 4 28.3
2019-Sep-15 09:14 236 0 gusting 4 27.8
2019-Sep-15 08:59 268 1 gusting 5 26.7
2019-Sep-15 08:44 289 0 gusting 5 26.7
2019-Sep-15 08:29 287 0 gusting 5 26.1
2019-Sep-15 08:14 239 1 gusting 5 26.1
2019-Sep-15 07:59 198 0 gusting 4 26.1
2019-Sep-15 07:46 156 0 gusting 5 25.6
2019-Sep-15 07:44 156 0 gusting 5 25.6
2019-Sep-15 07:29 237 1 gusting 5 25.0
2019-Sep-15 07:15 174 0 gusting 2 25.0
2019-Sep-15 07:14 174 0 gusting 2 25.0
2019-Sep-15 07:01 124 25.6
2019-Sep-15 06:59 124 25.6
2019-Sep-15 06:44 201 0 gusting 3 23.9
2019-Sep-15 06:29 206 1 gusting 5 22.8
2019-Sep-15 06:14 201 0 gusting 3 22.8
2019-Sep-15 05:59 232 2 gusting 6 21.7
2019-Sep-15 05:44 221 2 gusting 6 21.7
2019-Sep-15 05:29 243 3 gusting 6 21.1
2019-Sep-15 05:14 228 0 gusting 5 20.0
2019-Sep-15 04:59 186 0 gusting 6 19.4
2019-Sep-15 04:44 165 0 gusting 6 19.4
2019-Sep-15 04:29 224 2 gusting 5 20.0
2019-Sep-15 04:14 173 0 gusting 4 20.0
2019-Sep-15 03:59 153 20.0
2019-Sep-15 03:44 141 20.0
2019-Sep-15 03:29 185 0 gusting 2 20.0
2019-Sep-15 03:14 212 0 gusting 2 20.0
2019-Sep-15 02:44 165 20.0
2019-Sep-15 02:29 235 2 gusting 4 19.4
2019-Sep-15 02:14 228 0 gusting 4 19.4
2019-Sep-15 01:59 187 0 gusting 4 18.3
2019-Sep-15 01:44 183 18.9
2019-Sep-15 00:59 18.9
2019-Sep-15 00:44 140 19.4
2019-Sep-15 00:29 137 19.4
2019-Sep-15 00:14 133 0 gusting 2 19.4
2019-Sep-14 23:29 172 20.0
2019-Sep-14 23:14 204 20.6
2019-Sep-14 22:59 168 20.6
2019-Sep-14 22:44 228 2 gusting 5 21.1
2019-Sep-14 22:14 239 3 gusting 6 21.7